{"data":{"norad_id":31118,"intl_designator":"2007-012B","name":"SAUDISAT 3","alt_names":[],"object_type":"PAYLOAD","status":"ACTIVE","operator":null,"country":"SAUD","launch_date":"2007-04-17","launch_site_code":"TYMSC","launch_vehicle":null,"mission":null,"orbit_class":"UNKNOWN","rcs_meters":0.703,"size_class":null,"mass_kg":null,"dimensions":null,"purposes":["tech_demo"],"wikipedia_slug":null,"has_3d_model":false,"image_url":null,"decayed_at":null,"tle_current":{"epoch":"2026-05-25T03:18:29.947104Z","epoch_age_seconds":57098,"freshness":"FRESH","line1":"1 31118U 07012B   26145.13784661  .00000218  00000+0  43426-4 0  9991","line2":"2 31118  98.1445  95.5255 0013494 304.1833  55.8094 14.71409192 24354","mean_motion":14.71409192,"eccentricity":0.0013494,"inclination_deg":98.1445,"raan_deg":95.5255,"arg_perigee_deg":304.1833,"mean_anomaly_deg":55.8094,"bstar":4.3426e-5,"rev_number":2435,"period_min":97.865366604289,"perigee_km":647.08035291637,"apogee_km":666.06562823894,"semimajor_km":7034.7099905777,"source":"CELESTRAK","updated_at":"2026-05-25T13:38:25.046610Z"}}}